| time (UTC) | temp F | wind direction | speed knots | gust knots | rain 1hr in | rain 24hr in | rain mn in | humidity % | barometer mb |
| 20260504050444 | 39 | 170 | 0.0 | 0.9 | 0.00 | 0.00 | 0.00 | 88 | 1015.8 |
| 20260504045942 | 39 | 29 | 0.0 | 1.7 | 0.00 | 0.00 | 0.00 | 87 | 1015.9 |
| 20260504045437 | 39 | 49 | 0.0 | 0.0 | 0.00 | 0.00 | 0.00 | 84 | 1015.9 |
| 20260504044933 | 40 | 55 | 0.0 | 1.7 | 0.00 | 0.00 | 0.00 | 82 | 1015.8 |
| 20260504044431 | 41 | 3 | 0.0 | 1.7 | 0.00 | 0.00 | 0.00 | 80 | 1015.9 |
| 20260504043928 | 41 | 75 | 0.9 | 1.7 | 0.00 | 0.00 | 0.00 | 81 | 1015.9 |
| 20260504043425 | 41 | 153 | 1.7 | 1.7 | 0.00 | 0.00 | 0.00 | 82 | 1015.8 |
| 20260504042923 | 41 | 89 | 0.0 | 0.9 | 0.00 | 0.00 | 0.00 | 81 | 1015.8 |
| 20260504042419 | 41 | 66 | 0.9 | 0.9 | 0.00 | 0.00 | 0.00 | 78 | 1015.8 |
| 20260504041916 | 42 | 112 | 0.9 | 1.7 | 0.00 | 0.00 | 0.00 | 76 | 1015.8 |
| 20260504041412 | 43 | 170 | 1.7 | 2.6 | 0.00 | 0.00 | 0.00 | 74 | 1015.9 |
| 20260504040908 | 44 | 164 | 1.7 | 2.6 | 0.00 | 0.00 | 0.00 | 71 | 1015.6 |
| 20260504040406 | 46 | 147 | 1.7 | 1.7 | 0.00 | 0.00 | 0.00 | 65 | 1015.8 |
| 20260504035901 | 46 | 155 | 0.0 | 1.7 | 0.00 | 0.00 | 0.00 | 66 | 1015.7 |
| 20260504035359 | 46 | 138 | 0.0 | 1.7 | 0.00 | 0.00 | 0.00 | 65 | 1015.8 |
| 20260504034855 | 46 | 171 | 0.9 | 0.9 | 0.00 | 0.00 | 0.00 | 64 | 1015.6 |
| 20260504034353 | 46 | 194 | 0.0 | 0.9 | 0.00 | 0.00 | 0.00 | 66 | 1015.7 |
| 20260504033850 | 46 | 169 | 0.0 | 0.9 | 0.00 | 0.00 | 0.00 | 64 | 1015.5 |
| 20260504033348 | 47 | 151 | 0.9 | 1.7 | 0.00 | 0.00 | 0.00 | 63 | 1015.7 |
| 20260504032844 | 47 | 172 | 0.9 | 1.7 | 0.00 | 0.00 | 0.00 | 60 | 1015.5 |
| 20260504032342 | 48 | 166 | 1.7 | 1.7 | 0.00 | 0.00 | 0.00 | 59 | 1015.5 |
| 20260504031838 | 48 | 180 | 1.7 | 1.7 | 0.00 | 0.00 | 0.00 | 60 | 1015.5 |
| 20260504031336 | 48 | 171 | 1.7 | 2.6 | 0.00 | 0.00 | 0.00 | 60 | 1015.5 |
| 20260504030831 | 49 | 165 | 1.7 | 1.7 | 0.00 | 0.00 | 0.00 | 57 | 1015.5 |
| 20260504030329 | 49 | 184 | 0.9 | 1.7 | 0.00 | 0.00 | 0.00 | 56 | 1015.5 |
| 20260504025825 | 49 | 181 | 0.9 | 1.7 | 0.00 | 0.00 | 0.00 | 56 | 1015.5 |
| 20260504025322 | 49 | 174 | 0.0 | 1.7 | 0.00 | 0.00 | 0.00 | 57 | 1015.6 |
| 20260504024819 | 48 | 188 | 0.9 | 1.7 | 0.00 | 0.00 | 0.00 | 57 | 1015.5 |
| 20260504024315 | 49 | 175 | 1.7 | 2.6 | 0.00 | 0.00 | 0.00 | 56 | 1015.6 |
| 20260504023812 | 50 | 175 | 0.9 | 1.7 | 0.00 | 0.00 | 0.00 | 53 | 1015.5 |
| 20260504023309 | 50 | 167 | 0.9 | 1.7 | 0.00 | 0.00 | 0.00 | 54 | 1015.4 |
| 20260504022805 | 50 | 159 | 0.0 | 1.7 | 0.00 | 0.00 | 0.00 | 53 | 1015.5 |
| 20260504022301 | 50 | 145 | 0.0 | 0.9 | 0.00 | 0.00 | 0.00 | 53 | 1015.5 |
| 20260504021758 | 50 | 141 | 0.9 | 0.9 | 0.00 | 0.00 | 0.00 | 53 | 1015.5 |
| 20260504021256 | 50 | 213 | 1.7 | 1.7 | 0.00 | 0.00 | 0.00 | 53 | 1015.6 |
| 20260504020752 | 50 | 173 | 0.9 | 1.7 | 0.00 | 0.00 | 0.00 | 54 | 1015.5 |
| 20260504020249 | 51 | 163 | 0.9 | 1.7 | 0.00 | 0.00 | 0.00 | 53 | 1015.3 |
| 20260504015745 | 51 | 187 | 1.7 | 1.7 | 0.00 | 0.00 | 0.00 | 52 | 1015.4 |
| 20260504015242 | 50 | 176 | 1.7 | 1.7 | 0.00 | 0.00 | 0.00 | 53 | 1015.4 |
| 20260504014737 | 50 | 163 | 0.0 | 1.7 | 0.00 | 0.00 | 0.00 | 55 | 1015.3 |
| 20260504014234 | 48 | 135 | 0.0 | 1.7 | 0.00 | 0.00 | 0.00 | 59 | 1015.3 |
| 20260504013732 | 48 | 109 | 0.0 | 0.9 | 0.00 | 0.00 | 0.00 | 59 | 1015.1 |
| 20260504013229 | 48 | 319 | 0.0 | 0.0 | 0.00 | 0.00 | 0.00 | 59 | 1015.3 |
| 20260504012726 | 49 | 126 | 0.0 | 0.9 | 0.00 | 0.00 | 0.00 | 58 | 1015.4 |
| 20260504012224 | 49 | 131 | 0.0 | 0.9 | 0.00 | 0.00 | 0.00 | 58 | 1015.3 |
| 20260504011720 | 49 | 106 | 0.0 | 1.7 | 0.00 | 0.00 | 0.00 | 58 | 1015.3 |
| 20260504011217 | 49 | 136 | 0.0 | 0.9 | 0.00 | 0.00 | 0.00 | 58 | 1015.1 |
| 20260504010713 | 50 | 320 | 0.0 | 0.9 | 0.00 | 0.00 | 0.00 | 57 | 1015.3 |
| 20260504010209 | 50 | 135 | 0.0 | 0.0 | 0.00 | 0.00 | 0.00 | 55 | 1015.1 |
| 20260504005705 | 51 | 113 | 0.0 | 0.9 | 0.00 | 0.00 | 0.00 | 54 | 1015.2 |
| 20260504005203 | 51 | 124 | 0.0 | 0.9 | 0.00 | 0.00 | 0.00 | 53 | 1015.1 |
| 20260504004700 | 52 | 119 | 0.0 | 0.0 | 0.00 | 0.00 | 0.00 | 51 | 1015.1 |
| 20260504004157 | 52 | 110 | 0.0 | 1.7 | 0.00 | 0.00 | 0.00 | 51 | 1015.1 |
| 20260504003654 | 53 | 89 | 0.0 | 2.6 | 0.00 | 0.00 | 0.00 | 51 | 1015.0 |
| 20260504003151 | 53 | 131 | 0.0 | 1.7 | 0.00 | 0.00 | 0.00 | 49 | 1014.9 |
| 20260504002647 | 54 | 180 | 1.7 | 2.6 | 0.00 | 0.00 | 0.00 | 49 | 1014.9 |
| 20260504002145 | 53 | 171 | 0.0 | 2.6 | 0.00 | 0.00 | 0.00 | 49 | 1014.8 |
| 20260504001643 | 54 | 194 | 0.0 | 0.9 | 0.00 | 0.00 | 0.00 | 49 | 1014.8 |
| 20260504001138 | 54 | 168 | 1.7 | 2.6 | 0.00 | 0.00 | 0.00 | 47 | 1014.6 |
| 20260504000636 | 54 | 157 | 0.0 | 0.9 | 0.00 | 0.00 | 0.00 | 49 | 1014.7 |
| 20260504000133 | 55 | 44 | 0.0 | 3.5 | 0.00 | 0.00 | 0.00 | 47 | 1014.7 |
| 20260503235631 | 56 | 188 | 1.7 | 4.3 | 0.00 | 0.00 | 0.00 | 44 | 1014.4 |
| 20260503235127 | 56 | 161 | 1.7 | 2.6 | 0.00 | 0.00 | 0.00 | 44 | 1014.5 |
| 20260503234626 | 57 | 197 | 1.7 | 3.5 | 0.00 | 0.00 | 0.00 | 44 | 1014.5 |
| 20260503234123 | 57 | 204 | 0.9 | 3.5 | 0.00 | 0.00 | 0.00 | 44 | 1014.6 |
| 20260503233620 | 58 | 225 | 1.7 | 5.2 | 0.00 | 0.00 | 0.00 | 42 | 1014.4 |
| 20260503233116 | 58 | 199 | 3.5 | 5.2 | 0.00 | 0.00 | 0.00 | 42 | 1014.6 |
| 20260503232613 | 59 | 199 | 3.5 | 4.3 | 0.00 | 0.00 | 0.00 | 42 | 1014.4 |
| 20260503232110 | 60 | 215 | 1.7 | 4.3 | 0.00 | 0.00 | 0.00 | 39 | 1014.4 |
| 20260503231608 | 60 | 206 | 2.6 | 3.5 | 0.00 | 0.00 | 0.00 | 39 | 1014.5 |
| 20260503231104 | 60 | 186 | 0.0 | 6.1 | 0.00 | 0.00 | 0.00 | 39 | 1014.5 |
| 20260503230601 | 60 | 339 | 2.6 | 4.3 | 0.00 | 0.00 | 0.00 | 38 | 1014.5 |
| 20260503230059 | 60 | 180 | 3.5 | 5.2 | 0.00 | 0.00 | 0.00 | 37 | 1014.6 |
| 20260503225555 | 59 | 244 | 2.6 | 9.6 | 0.00 | 0.00 | 0.00 | 40 | 1014.4 |
| 20260503225050 | 59 | 234 | 3.5 | 7.0 | 0.00 | 0.00 | 0.00 | 38 | 1014.6 |
| 20260503224548 | 60 | 215 | 2.6 | 6.1 | 0.00 | 0.00 | 0.00 | 37 | 1014.4 |
| 20260503224046 | 61 | 146 | 1.7 | 7.8 | 0.00 | 0.00 | 0.00 | 37 | 1014.2 |
| 20260503223544 | 62 | 247 | 0.9 | 5.2 | 0.00 | 0.00 | 0.00 | 35 | 1014.4 |
| 20260503223039 | 62 | 271 | 1.7 | 6.1 | 0.00 | 0.00 | 0.00 | 37 | 1014.4 |
| 20260503222537 | 60 | 250 | 2.6 | 5.2 | 0.00 | 0.00 | 0.00 | 37 | 1014.6 |
| 20260503222035 | 60 | 318 | 2.6 | 6.1 | 0.00 | 0.00 | 0.00 | 37 | 1014.7 |
| 20260503221533 | 61 | 216 | 3.5 | 7.0 | 0.00 | 0.00 | 0.00 | 37 | 1014.6 |
| 20260503221030 | 62 | 253 | 2.6 | 8.7 | 0.00 | 0.00 | 0.00 | 35 | 1014.6 |
| 20260503220526 | 60 | 206 | 3.5 | 9.6 | 0.00 | 0.00 | 0.00 | 35 | 1014.4 |
| 20260503220023 | 62 | 244 | 2.6 | 4.3 | 0.00 | 0.00 | 0.00 | 38 | 1014.4 |
| 20260503215520 | 62 | 225 | 8.7 | 9.6 | 0.00 | 0.00 | 0.00 | 34 | 1014.6 |
| 20260503215017 | 61 | 292 | 3.5 | 9.6 | 0.00 | 0.00 | 0.00 | 36 | 1014.4 |
| 20260503214516 | 60 | 210 | 3.5 | 8.7 | 0.00 | 0.00 | 0.00 | 39 | 1014.3 |
| 20260503214012 | 62 | 53 | 3.5 | 8.7 | 0.00 | 0.00 | 0.00 | 36 | 1014.5 |
| 20260503213511 | 61 | 221 | 3.5 | 7.8 | 0.00 | 0.00 | 0.00 | 36 | 1014.3 |
| 20260503213007 | 60 | 248 | 0.9 | 7.8 | 0.00 | 0.00 | 0.00 | 39 | 1014.4 |
| 20260503212504 | 60 | 317 | 1.7 | 12.2 | 0.00 | 0.00 | 0.00 | 38 | 1014.4 |
| 20260503212001 | 62 | 228 | 4.3 | 8.7 | 0.00 | 0.00 | 0.00 | 36 | 1014.3 |
| 20260503211458 | 62 | 315 | 5.2 | 11.3 | 0.00 | 0.00 | 0.00 | 34 | 1014.4 |
| 20260503210954 | 63 | 272 | 2.6 | 7.0 | 0.00 | 0.00 | 0.00 | 37 | 1014.2 |
| 20260503210451 | 62 | 240 | 4.3 | 7.8 | 0.00 | 0.00 | 0.00 | 37 | 1014.2 |
| 20260503205946 | 61 | 210 | 1.7 | 6.1 | 0.00 | 0.00 | 0.00 | 37 | 1014.2 |
| 20260503205443 | 60 | 280 | 3.5 | 12.2 | 0.00 | 0.00 | 0.00 | 36 | 1014.3 |
| 20260503204939 | 62 | 258 | 4.3 | 7.0 | 0.00 | 0.00 | 0.00 | 36 | 1014.2 |
| 20260503204436 | 61 | 231 | 3.5 | 10.4 | 0.00 | 0.00 | 0.00 | 36 | 1014.4 |
| 20260503203933 | 61 | 285 | 3.5 | 9.6 | 0.00 | 0.00 | 0.00 | 35 | 1014.3 |
| 20260503203431 | 63 | 309 | 7.8 | 8.7 | 0.00 | 0.00 | 0.00 | 35 | 1014.3 |
| 20260503202928 | 61 | 242 | 5.2 | 9.6 | 0.00 | 0.00 | 0.00 | 37 | 1014.4 |
| 20260503202426 | 59 | 297 | 5.2 | 13.0 | 0.00 | 0.00 | 0.00 | 34 | 1014.2 |
| 20260503201924 | 62 | 288 | 7.8 | 11.3 | 0.00 | 0.00 | 0.00 | 36 | 1014.6 |
| 20260503201420 | 62 | 324 | 11.3 | 12.2 | 0.00 | 0.00 | 0.00 | 37 | 1014.1 |
| 20260503200918 | 62 | 253 | 3.5 | 10.4 | 0.00 | 0.00 | 0.00 | 35 | 1014.2 |
| 20260503200414 | 63 | 252 | 2.6 | 10.4 | 0.00 | 0.00 | 0.00 | 35 | 1014.3 |
| 20260503195911 | 60 | 293 | 3.5 | 7.8 | 0.00 | 0.00 | 0.00 | 38 | 1014.3 |
| 20260503195408 | 60 | 297 | 2.6 | 8.7 | 0.00 | 0.00 | 0.00 | 38 | 1014.5 |
| 20260503194905 | 62 | 247 | 2.6 | 10.4 | 0.00 | 0.00 | 0.00 | 39 | 1014.6 |
| 20260503194401 | 62 | 319 | 7.8 | 13.9 | 0.00 | 0.00 | 0.00 | 38 | 1014.7 |
| 20260503193857 | 59 | 348 | 7.8 | 12.2 | 0.00 | 0.00 | 0.00 | 36 | 1014.8 |
| 20260503193353 | 59 | 303 | 5.2 | 13.0 | 0.00 | 0.00 | 0.00 | 35 | 1014.8 |
| 20260503192849 | 59 | 177 | 1.7 | 8.7 | 0.00 | 0.00 | 0.00 | 38 | 1014.9 |
| 20260503192344 | 62 | 303 | 1.7 | 7.0 | 0.00 | 0.00 | 0.00 | 41 | 1014.9 |
| 20260503191842 | 59 | 279 | 5.2 | 9.6 | 0.00 | 0.00 | 0.00 | 39 | 1014.9 |
| 20260503191339 | 61 | 319 | 4.3 | 11.3 | 0.00 | 0.00 | 0.00 | 36 | 1015.0 |
| 20260503190835 | 60 | 356 | 2.6 | 5.2 | 0.00 | 0.00 | 0.00 | 37 | 1015.1 |
| 20260503190332 | 59 | 332 | 7.8 | 12.2 | 0.00 | 0.00 | 0.00 | 39 | 1015.2 |
| 20260503185829 | 61 | 299 | 5.2 | 13.0 | 0.00 | 0.00 | 0.00 | 36 | 1015.3 |
| 20260503185325 | 59 | 305 | 1.7 | 7.8 | 0.00 | 0.00 | 0.00 | 42 | 1015.1 |
| 20260503184820 | 59 | 301 | 7.8 | 11.3 | 0.00 | 0.00 | 0.00 | 38 | 1015.3 |
| 20260503184316 | 59 | 335 | 2.6 | 7.8 | 0.00 | 0.00 | 0.00 | 37 | 1015.4 |
| 20260503183811 | 59 | 302 | 3.5 | 13.0 | 0.00 | 0.00 | 0.00 | 38 | 1015.2 |
| 20260503183309 | 60 | 322 | 7.8 | 13.9 | 0.00 | 0.00 | 0.00 | 38 | 1015.3 |
| 20260503182806 | 59 | 322 | 9.6 | 13.0 | 0.00 | 0.00 | 0.00 | 35 | 1015.4 |
| 20260503182306 | 59 | 216 | 1.7 | 7.0 | 0.00 | 0.00 | 0.00 | 39 | 1015.3 |
| 20260503181802 | 58 | 321 | 5.2 | 15.6 | 0.00 | 0.00 | 0.00 | 39 | 1015.3 |
| 20260503181259 | 59 | 323 | 2.6 | 6.1 | 0.00 | 0.00 | 0.00 | 35 | 1015.6 |
| 20260503180755 | 59 | 127 | 0.9 | 3.5 | 0.00 | 0.00 | 0.00 | 39 | 1015.5 |
| 20260503180254 | 58 | 286 | 2.6 | 13.0 | 0.00 | 0.00 | 0.00 | 42 | 1015.7 |
| 20260503175749 | 59 | 298 | 7.8 | 10.4 | 0.00 | 0.00 | 0.00 | 34 | 1015.6 |
| 20260503175248 | 57 | 342 | 4.3 | 12.2 | 0.00 | 0.00 | 0.00 | 36 | 1015.6 |
| 20260503174743 | 59 | 279 | 2.6 | 4.3 | 0.00 | 0.00 | 0.00 | 36 | 1015.8 |
| 20260503174242 | 57 | 348 | 8.7 | 11.3 | 0.00 | 0.00 | 0.00 | 40 | 1015.7 |
| 20260503173742 | 55 | 356 | 2.6 | 6.1 | 0.00 | 0.00 | 0.00 | 41 | 1016.2 |
| 20260503173238 | 55 | 345 | 4.3 | 13.0 | 0.00 | 0.00 | 0.00 | 36 | 1016.4 |
| 20260503172735 | 56 | 333 | 6.1 | 10.4 | 0.00 | 0.00 | 0.00 | 40 | 1016.2 |
| 20260503172232 | 56 | 345 | 7.8 | 12.2 | 0.00 | 0.00 | 0.00 | 39 | 1016.4 |
| 20260503171729 | 55 | 335 | 7.8 | 14.8 | 0.00 | 0.00 | 0.00 | 39 | 1016.2 |
| 20260503171226 | 57 | 323 | 7.0 | 13.9 | 0.00 | 0.00 | 0.00 | 38 | 1016.5 |
| 20260503170723 | 57 | 34 | 0.0 | 7.0 | 0.00 | 0.00 | 0.00 | 42 | 1016.4 |
| 20260503170220 | 57 | 354 | 4.3 | 9.6 | 0.00 | 0.00 | 0.00 | 42 | 1016.5 |
| 20260503160141 | 52 | 298 | 2.6 | 11.3 | 0.00 | 0.00 | 0.00 | 46 | 1017.3 |
| 20260503150611 | 51 | 356 | 6.1 | 7.0 | 0.00 | 0.00 | 0.00 | 49 | 1017.7 |
| 20260503150108 | 51 | 299 | 5.2 | 13.9 | 0.00 | 0.00 | 0.00 | 46 | 1017.7 |
| 20260503130955 | 47 | 331 | 5.2 | 7.8 | 0.00 | 0.00 | 0.00 | 52 | 1018.2 |
| 20260503130453 | 46 | 0 | 5.2 | 15.6 | 0.00 | 0.00 | 0.00 | 54 | 1018.3 |
| 20260503110337 | 39 | 200 | 2.6 | 3.5 | 0.00 | 0.00 | 0.00 | 74 | 1017.8 |
| 20260503090223 | 38 | 125 | 0.0 | 2.6 | 0.00 | 0.00 | 0.00 | 73 | 1016.6 |
| 20260503081151 | 40 | 314 | 1.7 | 4.3 | 0.00 | 0.00 | 0.00 | 68 | 1016.3 |
| 20260503080646 | 40 | 309 | 0.9 | 2.6 | 0.00 | 0.00 | 0.00 | 70 | 1016.4 |
| 20260503080144 | 41 | 9 | 2.6 | 2.6 | 0.00 | 0.00 | 0.00 | 71 | 1016.4 |
| 20260503072621 | 42 | 352 | 1.7 | 3.5 | 0.00 | 0.00 | 0.00 | 67 | 1016.1 |
| 20260503072117 | 42 | 353 | 2.6 | 3.5 | 0.00 | 0.00 | 0.00 | 66 | 1016.1 |
| 20260503071614 | 42 | 34 | 0.9 | 3.5 | 0.00 | 0.00 | 0.00 | 67 | 1016.1 |
| 20260503071111 | 42 | 58 | 4.3 | 5.2 | 0.00 | 0.00 | 0.00 | 67 | 1016.1 |
| 20260503070608 | 42 | 356 | 1.7 | 3.5 | 0.00 | 0.00 | 0.00 | 66 | 1015.9 |
| 20260503070106 | 43 | 356 | 2.6 | 4.3 | 0.00 | 0.00 | 0.00 | 65 | 1015.7 |
| 20260503055026 | 45 | 57 | 7.0 | 7.8 | 0.00 | 0.00 | 0.00 | 61 | 1016.2 |
| 20260503054522 | 45 | 34 | 5.2 | 8.7 | 0.00 | 0.00 | 0.00 | 60 | 1015.9 |
| 20260503054020 | 44 | 50 | 4.3 | 4.3 | 0.00 | 0.00 | 0.00 | 65 | 1016.1 |